This is the latest recevied weather packets stored in our database for station/object SP1BMW-13. If no packets are shown the sender has not sent any weather packets the latest 10 day(s).
| Time | Temp. | Humidity | Pressure | Rain* | Wind** | Luminosity | Snow |
|---|---|---|---|---|---|---|---|
| 1787747654 | 23.33° C | 48% | 1021.3 hPa | 0 mm | 0.45 m/s, 70° | 668 W/m² | - |
| 1787747594 | 23.89° C | 46% | 1021.3 hPa | 0 mm | 0.89 m/s, 25° | 671 W/m² | - |
| 1787747534 | 23.89° C | 46% | 1021.3 hPa | 0 mm | 0.89 m/s, 27° | 175 W/m² | - |
| 1787747474 | 23.89° C | 47% | 1021.3 hPa | 0 mm | 1.34 m/s, 83° | 167 W/m² | - |
| 1787747414 | 23.89° C | 48% | 1021.3 hPa | 0 mm | 0.89 m/s, 181° | 177 W/m² | - |
| 1787747354 | 23.33° C | 48% | 1021.2 hPa | 0 mm | 1.34 m/s, 72° | 473 W/m² | - |
| 1787747294 | 23.33° C | 50% | 1021.2 hPa | 0 mm | 0.89 m/s, 51° | 677 W/m² | - |
| 1787747234 | 23.33° C | 51% | 1021.1 hPa | 0 mm | 0.89 m/s, 51° | 670 W/m² | - |
| 1787747174 | 23.33° C | 49% | 1021 hPa | 0 mm | 0.89 m/s, 69° | 663 W/m² | - |
| 1787747114 | 23.33° C | 47% | 1021.1 hPa | 0 mm | 0.45 m/s, 111° | 669 W/m² | - |
| 1787747054 | 23.33° C | 46% | 1021.1 hPa | 0 mm | 2.24 m/s, 53° | 152 W/m² | - |
| 1787746994 | 23.33° C | 47% | 1021.3 hPa | 0 mm | 2.24 m/s, 43° | 147 W/m² | - |
| 1787746933 | 23.33° C | 48% | 1021.4 hPa | 0 mm | 0.89 m/s, 40° | 144 W/m² | - |
| 1787746874 | 23.33° C | 49% | 1021.4 hPa | 0 mm | 0.89 m/s, 132° | 633 W/m² | - |
| 1787746814 | 23.33° C | 48% | 1021.2 hPa | 0 mm | 1.34 m/s, 67° | 680 W/m² | - |
| 1787746754 | 23.89° C | 47% | 1021.1 hPa | 0 mm | 1.79 m/s, 61° | 686 W/m² | - |
| 1787746694 | 23.89° C | 46% | 1021.3 hPa | 0 mm | 1.79 m/s, 26° | 270 W/m² | - |
| 1787746633 | 23.89° C | 48% | 1021.3 hPa | 0 mm | 1.79 m/s, 132° | 282 W/m² | - |
| 1787746574 | 23.89° C | 46% | 1021.2 hPa | 0 mm | 0.45 m/s, 23° | 166 W/m² | - |
| 1787746514 | 23.89° C | 46% | 1021.2 hPa | 0 mm | 0.89 m/s, 108° | 174 W/m² | - |
| 1787746454 | 23.89° C | 46% | 1021.2 hPa | 0 mm | 0.45 m/s, 239° | 185 W/m² | - |
| 1787746394 | 23.89° C | 47% | 1021.3 hPa | 0 mm | 0.45 m/s, 54° | 489 W/m² | - |
| 1787746334 | 23.89° C | 47% | 1021.2 hPa | 0 mm | 0.89 m/s, 20° | 198 W/m² | - |
| 1787746273 | 23.89° C | 46% | 1021.2 hPa | 0 mm | 1.79 m/s, 27° | 695 W/m² | - |
| 1787746214 | 23.89° C | 46% | 1021.2 hPa | 0 mm | 1.79 m/s, 20° | 692 W/m² | - |
* Rain latest hour (hover to see other rain measurements)
** Current wind speed in m/s (hover to see current wind gust speed)